Location: Fontevrault
(47.1823°N, 0.0493°E)
Time: 18:37:44
(UTC+00:00)

Cosmos 1725 Rocket - Pass Details

Date: 26 October 2021
Orbit: 961 x 991 km, 82.9° (Epoch: 27 November)

Event Time Altitude Azimuth Distance (km) Brightness Sun altitude
Exits shadow 22:04:22 12° 317° (NW) 2,599 6.7 -49.8°
Drops below altitude 10° 22:05:25 10° 327° (NNW) 2,715 6.8 -49.9°
Sets 22:09:49 0° 356° (N) 3,662 7.5 -50.4°
